Skip Page Navigation
NASA JPL Caltech
NASA Logo - Jet Propulsion Laboratory + View the NASA Portal
+ Center for Near-Earth Object Studies
JPL Home Earth Solar System Stars & Galaxies Technology
JPL Solar System Dynamics
BODIES ORBITS EPHEMERIDES TOOLS PHYSICAL DATA DISCOVERY FAQ SITE MAP
IMPORTANT: The SSD Announcement email list is now available. Major changes are coming in the near future, including possible hostname and/or URL changes. To be notified of such changes, subscribe to this email list.

Please visit this page for more details.


JPL Small-Body Database Browser
Search: [ help ]  
183999 (2004 EV76)
Classification: Main-belt Asteroid          SPK-ID: 2183999
Ephemeris | Orbit Diagram | Orbital Elements | Mission Design | Physical Parameters | Discovery Circumstances | Close-Approach Data ]

[ show orbit diagram ]
Orbital Elements at Epoch 2458600.5 (2019-Apr-27.0) TDB
Reference: JPL 16 (heliocentric ecliptic J2000)
 Element Value Uncertainty (1-sigma)   Units 
e .07184697209210245 3.9879e-08  
a 2.677978377767436 2.5877e-08 au
q 2.485573739996725 1.094e-07 au
i 4.943657055649284 5.6618e-06 deg
node 142.6861816314444 5.4431e-05 deg
peri 95.09587121483686 7.1306e-05 deg
M 103.2302874827796 4.854e-05 deg
tp 2458141.498967845313
(2018-Jan-22.99896785)
0.00021245 TDB
period 1600.696613416407
4.38
2.3201e-05
6.352e-08
d
yr
n .2249020813704622 3.2598e-09 deg/d
Q 2.870383015538147 2.7736e-08 au
  Orbit Determination Parameters
   # obs. used (total)      352  
   data-arc span      8060 days (22.07 yr)  
   first obs. used      1997-10-04  
   last obs. used      2019-10-29  
   planetary ephem.      DE431  
   SB-pert. ephem.      SB431-N16  
   condition code      0  
   norm. resid. RMS      .53516  
   source      ORB  
   producer      Otto Matic  
   solution date      2019-Nov-07 20:44:06  

Additional Information
 Earth MOID = 1.47949 au 
 Jupiter MOID = 2.13106 au 
 T_jup = 3.369 
[ show covariance matrix ]

Ephemeris | Orbit Diagram | Orbital Elements | Mission Design | Physical Parameters | Discovery Circumstances | Close-Approach Data ]

Physical Parameter Table
Parameter Symbol Value Units Sigma Reference Notes
absolute magnitude H 16.2   n/a MPO454266  

183999 (2004 EV76)          Discovered 2004-Mar-15 by CSS at Catalina
Reference: 20080420/Numbers.arcLast Updated: 2008-04-23

[ show close-approach data ]
Ephemeris | Orbit Diagram | Orbital Elements | Mission Design | Physical Parameters | Discovery Circumstances | Close-Approach Data ]
ABOUT SSD CREDITS/AWARDS PRIVACY/COPYRIGHT GLOSSARY LINKS
FirstGov
(server date/time)  
NASA Home Page
Site Manager:   Ryan S. Park
Webmaster  Alan B. Chamberlin